Home > Time Zones > World Clock > Weather > Japan > Osaka > Past weeks

Flag Weather past 2 weeks in Osaka, Japan

Now
43 °F

Clear.


Feels Like: 41 °F
Forecast: 50 / 65 °F
Wind: 3 mph from Northwest

Location: Osaka International Airport

Current Time: Nov 24, 2014 at 6:37:36 AM

Latest Report: Nov 24, 2014 at 5:00 AM


Visibility: 10 mi

Pressure: 30.21 "Hg

Humidity: 87%

Dew point: 39 °F

Location of OsakaLocation

Historic Weather in Osaka — Graph

°F

Osaka temperature yesterday

Maximum temperature yesterday: 66 °F (at 1:00 PM)
Minimum temperature yesterday: 46 °F (at 5:00 AM)
Average temperature yesterday: 58 °F

Past Weeks' High & Low Weather Summary

 TemperatureHumidityPressure
High68 °F (Nov 10, 1:00 PM)100% (Nov 9, 11:00 AM)30.33 "Hg (Nov 9, 11:00 AM)
Low37 °F (Nov 21, 6:00 AM)25% (Nov 21, 2:00 PM)29.74 "Hg (Nov 12, 1:00 PM)
Average55 °F60%30.14 "Hg
* Reported Nov 9 5:00 AM — Nov 24 5:00 AM, Osaka, Weather by CustomWeather, © 2014

Note: Actual official high and low records may vary slightly from our data, if they occured in-between our weather recording intervals... More about our weather records

Advertising

Osaka weather history for previous 24 hours

 ConditionsComfort  
Time TempWeatherWind HumidityBarometerVisibility
5:00 AM
Nov 24
43 °FClear.3 mph87%30.21 "Hg10 mi
8:00 PM
Nov 23
57 °FPassing clouds.6 mph63%30.24 "HgN/A
7:00 PM57 °FClear.7 mph59%30.24 "Hg10 mi
6:00 PM59 °FPassing clouds.6 mph55%30.21 "HgN/A
5:00 PM59 °FPassing clouds.5 mph55%30.21 "HgN/A
4:00 PM63 °FPartly sunny.12 mph45%30.18 "HgN/A
3:00 PM66 °FPartly sunny.10 mph40%30.18 "HgN/A
2:00 PM66 °FPassing clouds.10 mph43%30.18 "HgN/A
1:00 PM66 °FPartly sunny.5 mph46%30.18 "HgN/A
12:00 PM64 °FPartly sunny.3 mph52%30.18 "HgN/A
11:00 AM64 °FScattered clouds.2 mph52%30.21 "HgN/A
10:00 AM61 °FPassing clouds.2 mph59%30.24 "HgN/A
9:00 AM55 °FPassing clouds.2 mph67%30.24 "HgN/A
8:00 AM50 °FPassing clouds.1 mph82%30.24 "HgN/A
7:00 AM46 °FPassing clouds.3 mph87%30.24 "HgN/A
6:00 AM46 °FPassing clouds.2 mph87%30.21 "HgN/A
Weather by CustomWeather, © 2014

See weather overviewHow to use our weather pages